DW3384 Weather Reports


time (UTC)temp
C
wind
direction
speed
KPH
gust
KPH
rain 1hr
cm
rain 24hr
cm
rain mn
cm
humidity
%
barometer
mb
20260507144525 10 259 14.5 29.0 0.00 0.20 0.20 79 1015.9
20260507143015 9 262 11.3 24.1 0.00 0.20 0.20 80 1016.1
20260507141513 8 259 14.5 25.7 0.00 0.20 0.20 81 1016.2
20260507140012 7 264 14.5 27.4 0.00 0.20 0.20 84 1016.4
20260507134512 7 247 9.7 22.5 0.00 0.20 0.20 84 1016.4
20260507133010 6 255 8.0 14.5 0.00 0.20 0.20 85 1016.7
20260507131509 6 240 3.2 12.9 0.00 0.20 0.20 85 1016.6
20260507130008 5 257 6.4 14.5 0.00 0.20 0.20 85 1016.7
20260507124510 5 280 9.7 14.5 0.00 0.20 0.20 85 1016.7
20260507123009 4 265 3.2 11.3 0.00 0.20 0.20 85 1016.5
20260507121506 3 252 6.4 9.7 0.00 0.20 0.20 84 1016.4
20260507120006 3 268 8.0 14.5 0.00 0.20 0.20 84 1016.5
20260507114503 4 256 6.4 12.9 0.00 0.20 0.20 84 1016.5
20260507113101 4 265 6.4 9.7 0.00 0.20 0.20 84 1016.4
20260507111602 4 287 6.4 12.9 0.00 0.20 0.20 84 1016.4
20260507110057 4 272 4.8 9.7 0.00 0.20 0.20 84 1016.4
20260507104553 5 257 4.8 9.7 0.00 0.20 0.20 84 1016.5
20260507103050 5 289 4.8 11.3 0.00 0.20 0.20 84 1016.5
20260507101549 5 290 4.8 8.0 0.00 0.20 0.20 84 1016.6
20260507100047 5 281 3.2 8.0 0.00 0.20 0.20 84 1016.6
20260507094544 6 281 4.8 9.7 0.00 0.20 0.20 84 1016.7
20260507093047 6 282 4.8 8.0 0.00 0.20 0.20 84 1016.7
20260507091545 6 275 4.8 8.0 0.00 0.20 0.20 83 1016.7
20260507090040 6 294 3.2 6.4 0.00 0.20 0.20 83 1016.5
20260507084536 6 278 4.8 8.0 0.00 0.20 0.20 83 1016.9
20260507083034 6 288 3.2 9.7 0.00 0.20 0.20 83 1016.9
20260507081533 6 274 4.8 6.4 0.00 0.20 0.20 83 1017.0
20260507080032 6 311 3.2 9.7 0.00 0.20 0.20 83 1017.1
20260507074531 7 282 3.2 9.7 0.00 0.20 0.20 83 1017.6
20260507073031 7 281 4.8 8.0 0.00 0.20 0.20 82 1017.6
20260507071529 6 278 3.2 8.0 0.03 0.20 0.20 82 1017.4
20260507070032 7 273 4.8 9.7 0.08 0.20 0.20 81 1017.5
20260507064525 7 298 3.2 9.7 0.10 0.20 0.20 81 1017.5
20260507063022 7 286 4.8 9.7 0.13 0.20 0.20 80 1017.6
20260507061520 7 306 1.6 4.8 0.13 0.18 0.18 79 1017.4
20260507060022 7 309 3.2 4.8 0.13 0.13 0.13 79 1017.9
20260507054519 7 312 3.2 4.8 0.10 0.10 0.10 79 1017.9
20260507053013 8 339 1.6 3.2 0.08 0.08 0.08 78 1017.5
20260507051511 8 284 3.2 8.0 0.05 0.05 0.05 75 1017.8
20260507050006 9 313 3.2 8.0 0.00 0.00 0.00 68 1017.7
20260507044505 10 314 1.6 6.4 0.00 0.00 0.00 62 1017.2
20260507043009 10 298 1.6 4.8 0.00 0.00 0.00 60 1017.3
20260507041503 10 34 0.0 8.0 0.00 0.00 0.00 60 1016.9
20260507040003 10 355 3.2 12.9 0.00 0.00 0.00 60 1017.3
20260507034503 10 42 3.2 12.9 0.00 0.00 0.00 60 1017.4
20260507033001 10 334 1.6 14.5 0.00 0.00 0.00 59 1017.4
20260507031600 10 5 4.8 14.5 0.00 0.00 0.00 59 1017.3
20260507030057 10 355 8.0 14.5 0.00 0.00 0.00 58 1016.8
20260507024605 10 284 3.2 16.1 0.00 0.00 0.00 58 1016.3
20260507023052 10 30 6.4 16.1 0.00 0.00 0.00 58 1016.1
20260507021549 10 345 6.4 12.9 0.00 0.00 0.00 57 1015.5
20260507020106 10 5 8.0 14.5 0.00 0.00 0.00 57 1015.4
20260507014552 10 317 4.8 14.5 0.00 0.00 0.00 55 1015.1
20260507013052 11 325 3.2 14.5 0.00 0.00 0.00 54 1014.6
20260507011545 11 5 1.6 12.9 0.00 0.00 0.00 53 1014.0
20260507010045 12 9 1.6 8.0 0.00 0.00 0.00 51 1013.6
20260507004552 12 40 4.8 12.9 0.00 0.00 0.00 51 1013.2